Overview Statistics Trail Chart Weather Telemetry Raw packets
 

This is the latest recevied weather packets stored in our database for station/object KR0L-13. If no packets are shown the sender has not sent any weather packets the latest 10 day(s).

<< 28 29 30 31 32 33 34 >>
Time Temp. Humidity Pressure Rain* Wind** Luminosity Snow
1788236122 27.78° C 51% 1015.2 hPa 0 mm - - -
1788235522 27.78° C 50% 1015.1 hPa 0 mm - - -
1788234922 28.33° C 49% 1014.9 hPa 0 mm - - -
1788234321 28.89° C 47% 1014.7 hPa 0 mm - - -
1788233721 28.89° C 46% 1014.6 hPa 0 mm - - -
1788233121 29.44° C 45% 1014.4 hPa 0 mm - - -
1788232522 30° C 44% 1014.3 hPa 0 mm - - -
1788231921 30.56° C 42% 1014 hPa 0 mm - - -
1788231322 31.11° C 42% 1013.9 hPa 0 mm - - -
1788230722 31.11° C 41% 1013.7 hPa 0 mm - - -
1788230122 31.11° C 40% 1013.6 hPa 0 mm - - -
1788229521 31.67° C 40% 1013.5 hPa 0 mm - - -
1788228921 31.67° C 40% 1013.3 hPa 0 mm - - -
1788228334 31.67° C 40% 1013.1 hPa 0 mm - - -
1788227721 31.11° C 40% 1012.9 hPa 0 mm - - -
1788227121 31.67° C 40% 1012.7 hPa 0 mm - - -
1788226521 31.67° C 39% 1012.6 hPa 0 mm - - -
1788225921 32.22° C 38% 1012.5 hPa 0 mm - - -
1788225322 32.78° C 36% 1012.6 hPa 0 mm - - -
1788224721 33.33° C 35% 1012.6 hPa 0 mm - - -
1788224121 33.89° C 33% 1012.7 hPa 0 mm - - -
1788223521 34.44° C 32% 1012.6 hPa 0 mm - - -
1788222921 35° C 31% 1012.6 hPa 0 mm - - -
1788222322 35.56° C 30% 1012.6 hPa 0 mm - - -
1788221722 36.11° C 29% 1012.8 hPa 0 mm - - -

* Rain latest hour (hover to see other rain measurements)
** Current wind speed in m/s (hover to see current wind gust speed)